Terminal Aerodrome Forecast
Issued by NWS Wakefield, VA

Home | Current Version | Previous Version | Text Only | Print | Product List | Glossary On
Versions: 1 2 3 4 5 6 7 8 9 10 11 12 13 14
311
FTUS41 KAKQ 140522
TAFORF
TAF
KORF 140522Z 1406/1506 36012G18KT P6SM SKC
     FM141700 01009KT P6SM SCT250
     FM142100 VRB06KT P6SM SCT100 BKN150
     FM150300 08004KT P6SM FEW030 OVC060=

USA.gov is the U.S. government's official web portal to all federal, state and local government web resources and services.